EUTELSAT KONNECT (45027 NORAD) Tracking and Keplerian Element Data

This shows tracking and keplerian element data for the satellite.

Feedback or suggestion? Click here.




ElementValue
Catalog45027
NameEUTELSAT KONNECT
Epoch Orbit73
Epoch Day52.05747325
Epoch Year2020
RAAN251.5688
Inclination6.0391
Eccentricity0.6667167
Argument of Perigee191.9823
Mean Anonmoly136.0637
Mean Motion1.92491622
Decay Rate8.7E-07
L11 45027U 20005B 20052.05747325 .00000087 00000-0 00000+0 0 9991
L22 45027 6.0391 251.5688 6667167 191.9823 136.0637 1.92491622 738

Live tracking and technical data element details for EUTELSAT KONNECT (NORAD 45027). EUTELSAT KONNECT can be tracked NOW for your location showing map with azimuth and elevation plus other details from your city location.

Track the satellite on the map from your city or location and see movement details for azimuth, elevation, latitude, longitude, range, height, and movement on the map or in text.







IsCatalogInMostPopularTable: catalog: 45027, numindb: 14
Update: records affected: 1



GetName: 45027 EUTELSAT KONNECT

Hit Count: updated at: Mon, 24 Feb 2020 16:52:09 GMT